Location: Engelmannsreuth
(49.8125°N, 11.6497°E)
Time: 09:13:56
(UTC+00:00)

Meteor 1-31 Rocket - Pass Details

Date: 17 February 2020
Orbit: 522 x 546 km, 97.6° (Epoch: 03 April)

Event Time Altitude Azimuth Distance (km) Brightness Sun altitude
Rises 04:02:04 0° 13° (NNE) 2,666 6.6 -23.0°
Reaches altitude 10° 04:04:11 10° 14° (NNE) 1,774 5.7 -22.7°
Maximum altitude 04:08:01 88° 94° (E) 532 2.6 -22.1°
Enters shadow 04:08:22 73° 189° (S) 555 2.7 -22.0°
